Location: Bennemühlen
(52.5740°N, 9.7135°E)
Time: 07:03:22
(UTC+00:00)

Vanguard 2 Rocket - Pass Details

Date: 24 February 2026
Orbit: 553 x 3286 km, 32.9° (Epoch: 7 March)

Event Time Altitude Azimuth Distance (km) Brightness Sun altitude
Rises 15:58:23 0° 270° (W) 6,847 12.7 6.6°
Reaches altitude 10° 16:06:11 10° 252° (WSW) 5,319 13.6 5.6°
Maximum altitude 16:12:59 15° 225° (SW) 4,343 11.8 4.6°
Drops below altitude 10° 16:18:33 10° 196° (SSW) 4,163 10.9 3.8°
Sets 16:23:19 0° 173° (S) 4,611 10.7 3.1°
